Weather in Tulua

Colombia     4°04′48″N   76°11′13″W
temp.,
°C
wind,
m/s
gust,
m/s
humid.,
%
clouds,
%
prec.,
mm/h
press.,
hPa
HPBL,
m
13 june, sun
sun1301:00+17s1296100 6.0 101443
04:00+16ese1194100 0.3 101428
07:00+17ene1194100 0.3 101693
10:00+21ese1177100 0.2 1015594
13:00+20s2285100 2.1 1014390
16:00+20sw1287100 1.9 1013143
19:00+17ssw2494100 4.2 1015113
22:00+17ssw1295100 0.1 101753
14 june, mon
mon1401:00+16s1193100 0.1 101516
04:00+16ne0195100 0.1 101513
07:00+16n119597 0.1 101657
10:00+19n118528 0.1 1016360
13:00+23e116999 1.3 1012675
16:00+20se1183100 3.7 101270
19:00+18e019386 6.9 101520
22:00+17e1194100 1.0 101714
15 june, tue
tue1501:00+17ene009683 1.9 101621
04:00+17se009799 0.6 101632
07:00+17nne1196100 1.5 1017100
10:00+17ne2396100 1.6 1018242
13:00+19ne2388100 2.0 1015477
16:00+19nne2388100 0.7 1013346
19:00+17ese009665 1.2 101626
22:00+16ne019567 0.1 101711
16 june, wed
wed1601:00+15ne119529 0.1 101613
04:00+15ne119544 0.0 101617
07:00+16ne129290 0.0 1017113
10:00+21ne117313 0.1 1016578
13:00+24ne116029 0.6 1012954
16:00+24n116295 1.7 1010814
19:00+18ne119299 5.1 101328
22:00+17ne129498 1.4 101538
17 june, thu
thu1701:00+16nne119348 1.6 101419
04:00+15ene019261 0.0 101412
07:00+16nne119094 0.0 101586
10:00+22ne11726 0.0 1014576
13:00+25n01587 0.5 10101026
16:00+25nnw116117 2.2 1008895
19:00+19nne0189100 6.4 101127
22:00+17sse119286 4.4 101419